Location: Ferintosh
(52.7647°N, 112.9692°W)
Time: 17:34:47
(UTC+00:00)

Explorer 7 - Pass Details

Date: 30 May 2024
Orbit: 466 x 622 km, 50.3° (Epoch: 15 June)

Event Time Altitude Azimuth Distance (km) Brightness Sun altitude
Rises 03:43:29 0° 220° (SW) 2,491 10.2 -0.8°
Reaches altitude 10° 03:45:51 10° 207° (SSW) 1,625 9.1 -1.1°
Maximum altitude 03:48:52 25° 151° (SSE) 1,008 7.7 -1.4°
Drops below altitude 10° 03:51:58 10° 95° (E) 1,671 8.8 -1.8°
Sets 03:54:27 0° 82° (E) 2,579 9.9 -2.1°
